Simultaneous Nadir Overpasses (SNOs) Predictions

Prediction of SNOs between NOAA-19 and NPP Satellite Orbit:

Table of predicted SNOs for the next 14.0 days since TLE Epoch: 9/15/2014
Index Date (NOAA-19) Time (NOAA-19) Lat,Lon (NOAA-19) SZA (NOAA-19 ) Date (NPP) Time (NPP) Lat,Lon (NPP) SZA (NPP ) Distance(km) Time Diff (sec)
1 09/26/2014 23:32:55 80.97, 135.45 85.57 09/26/2014 23:34:02 80.97, 135.52 85.53 1.18 67
2 09/27/2014 00:23:51 -80.96, -57.10 94.45 09/27/2014 00:24:47 -80.97, -57.24 94.45 2.67 56
3 09/27/2014 01:14:57 80.96, 110.47 85.52 09/27/2014 01:15:31 80.95, 110.48 85.50 0.29 34
4 09/27/2014 02:05:54 -80.96, -82.45 94.44 09/27/2014 02:06:16 -80.96, -82.28 94.48 3.04 22
5 09/27/2014 02:56:59 80.94, 85.48 85.48 09/27/2014 02:57:00 80.94, 85.44 85.48 0.72 1
6 09/27/2014
